Regional Weather Roundup
Issued by NWS

Home | Current Version | Previous Version | Text Only | Print | Product List | Glossary Off
Versions: 1 2 3 4 5 6 7 8 9 10 11 12 13 14 15 16 17 18 19 20 21 22 23 24 25 26 27 28 29 30 31 32 33 34 35 36 37 38 39 40 41 42 43 44 45 46 47 48 49 50

000
ASUS43 KLOT 031608
RWRIL

ILLINOIS REGIONAL WEATHER ROUNDUP
NATIONAL WEATHER SERVICE CHICAGO/ROMEOVILLE IL
1100 AM CDT FRI JUL 03 2015

NOTE: "FAIR" INDICATES FEW OR NO CLOUDS BELOW 12,000 FEET WITH NO
SIGNIFICANT WEATHER AND/OR OBSTRUCTIONS TO VISIBILITY.

* THESE STATIONS ARE NOT UNDER NWS QUALITY CONTROL. THEY ALSO MAY NOT
  REPORT WEATHER SUCH AS PRECIPITATION OR FOG.

ILZ001-002-007-009-015-016-024-031700-
NORTHWEST ILLINOIS

CITY           SKY/WX    TMP DP  RH WIND       PRES   REMARKS
MOLINE         SUNNY     71  57  61 VRB3      29.97F
STERLING*      MOSUNNY   70  61  73 CALM      29.99S
SAVANNA*       SUNNY     70  57  63 NW3       29.99S
$$

ILZ003-004-008-010-011-017-018-031700-
NORTH CENTRAL ILLINOIS

CITY           SKY/WX    TMP DP  RH WIND       PRES   REMARKS
ROCKFORD       CLOUDY    72  57  59 SW6       30.00S
FREEPORT*      MOSUNNY   67  57  69 CALM      30.01S
ROCHELLE*      PTSUNNY   71  57  61 CALM      30.00S
DE KALB*       MOSUNNY   68  56  64 SE3       30.00S
PERU*          MOSUNNY   71  57  61 N3        29.98S
$$

ILZ005-006-012>014-019>023-031700-
NORTHEAST ILLINOIS

CITY           SKY/WX    TMP DP  RH WIND       PRES   REMARKS
CHICAGO-OHARE  CLOUDY    71  56  58 E5        29.97F
CHICAGO-MIDWAY PTSUNNY   75  57  53 NE6       29.97S
AURORA         PTSUNNY   71  55  56 SE3       29.98F
LANSING*       PTSUNNY   71  52  50 E5        29.97S
JOLIET*        PTSUNNY   74  58  56 E6        29.97S
WAUKEGAN       MOSUNNY   69  56  62 CALM      29.98F
DUPAGE AIRPORT PTSUNNY   71  56  58 N3        29.98S
KANKAKEE*      PTSUNNY   72  59  63 NE7       29.96S
WHEELING       MOSUNNY   73  55  53 VRB3      29.99S
MORRIS*        PTSUNNY   73  56  55 E7        29.95F
ROMEOVILLE*    PTSUNNY   71  54  54 E6        29.98S
NORTHERLY ISL    N/A     65  57  75 N6          N/A
$$

LMZ740>746-031700-
SOUTHERN LAKE MICHIGAN

STATION/POSITION SKY/WX   TEMP    WIND        PRES    VSBY  WAVE
                          AIR SEA DIR/SP/G                  HT/PER
                          (F)     (DEG/KT/KT) (MB)    (MI)  (FT/S)
HARRISON CRIB              61      20/  5/  6   N/A
BURNHAM HARBOR             65      30/  6/  6   N/A
CALUMET HARBOR             65      20/  5/  6   N/A
BURNS HARBOR               66     360/  5/  7 1015.6S
MICHIGAN CITY              68      50/  2/  6   N/A
MICHIGAN CITY 6N           63 64   10/  6/  8   N/A           1/ 4
ST. JOSEPH                 63 63                N/A           1
$$

ILZ025>027-034>036-040-047-049-050-058-095>099-031700-
WEST-CENTRAL ILLINOIS

CITY           SKY/WX    TMP DP  RH WIND       PRES   REMARKS
QUINCY         SUNNY     72  63  73 N8        29.96S
GALESBURG*     SUNNY     71  61  71 N6        29.97S
MACOMB*        MOSUNNY   70  62  75 NE6       29.98F
JACKSONVILLE*  PTSUNNY   72  65  77 N7        29.94S
PITTSFIELD*    SUNNY     73  64  73 N5        29.96R
$$

ILZ028>032-037-038-041>044-048-051>054-059>061-031700-
CENTRAL ILLINOIS

CITY           SKY/WX    TMP DP  RH WIND       PRES   REMARKS
PONTIAC        PTSUNNY   71  61  70 NE5       29.97S
BLOOMINGTON    PTSUNNY   70  63  78 NE9       29.96S
DECATUR        MOSUNNY   72  64  76 NE5       29.93R
PEORIA         MOSUNNY   74  61  63 VRB6      29.96S
LACON*         SUNNY     72  57  58 NE5       29.95F
LINCOLN*       PTSUNNY   70  61  73 CALM      29.95R
SPRINGFIELD    CLOUDY    72  63  73 N6        29.94R
TAYLORVILLE    CLOUDY    70  64  83 N5        29.94R
$$

ILZ033-039-045-046-055>057-062-063-031700-
EAST-CENTRAL ILLINOIS

CITY           SKY/WX    TMP DP  RH WIND       PRES   REMARKS
CHAMPAIGN      MOSUNNY   73  64  73 E10       29.93S
DANVILLE*      PTSUNNY   71  63  76 E5        29.91R
RANTOUL*       MOSUNNY   75  65  70 NE8       29.94R
MATTOON        CLOUDY    73  65  75 N6        29.91R
PARIS*         MOSUNNY   74  67  77 NE7       29.92S
$$

ILZ079-100>102-031700-
SOUTHWEST ILLINOIS

CITY           SKY/WX    TMP DP  RH WIND       PRES   REMARKS
ALTON          PTSUNNY   73  72  94 N6        29.93S
BELLEVILLE     MOSUNNY   78  69  75 N7        29.90S HX  80
CAHOKIA*       MOSUNNY   78  65  63 N8        29.92R HX  80
SPARTA*        PTSUNNY   76  67  72 NW6       29.93R
$$

ILZ064>066-069>071-074>076-080>082-084>086-088>090-092>094-031700-
SOUTH-CENTRAL ILLINOIS

CITY           SKY/WX    TMP DP  RH WIND       PRES   REMARKS
CARBONDALE     PTSUNNY   77  67  71 W5        29.91R
CAIRO*         MOSUNNY   76  71  82 W5        29.91S
EFFINGHAM*     MOSUNNY   75  64  68 N3        29.93R
MARION         PTSUNNY   77  70  78 N6        29.92R
MT. VERNON     CLOUDY    75  66  73 NW3       29.91R
CENTRALIA*     MOSUNNY   76  66  71 NW6       29.92R
SALEM*         CLOUDY    77  68  74 N5        29.91R
METROPOLIS*    CLOUDY    77  71  81 CALM      29.92R
$$

ILZ067-068-072-073-078-083-087-091-031700-
SOUTHEAST ILLINOIS

CITY           SKY/WX    TMP DP  RH WIND       PRES   REMARKS
LAWRENCEVILLE  CLOUDY    74  68  81 CALM      29.89R
FLORA*         SUNNY     76  69  78 N6        29.91R
FAIRFIELD*     CLOUDY    77  70  80 N7        29.89R
HARRISBURG*    PTSUNNY   77  70  79 CALM      29.91R
ROBINSON*      CLOUDY    73  66  79 NE3       29.91R
CARMI*         PTSUNNY   78  65  63 W5        29.89R HX  80
$$

ABBREVIATIONS USED IN REMARKS
   TC - TEMPERATURE IN CELSIUS
  WCI - WIND CHILL INDEX
   HX - HEAT INDEX
  VSB - VISIBILITY
$$




USA.gov is the U.S. government's official web portal to all federal, state and local government web resources and services.